EZY392 EGNS-EGGP

Flight info

Callsign EZY392
Flight time 0h 21m
Altitude 15000
Route TIMIS Q39 DANDI DCT PENIL
Aircraft A319/M-SDE3FGHIRWY/LB1

Departure

Time 2026-04-16 08:54
Airport Isle of Man Airport (EGNS)

Arrival

Time 2026-04-16 09:16
Airport Liverpool John Lennon Airport (EGGP)
Time Latitude Longitude Altitude Speed Heading
2026-04-16 08:42 54.08564 -4.63266 54 ft 0 kts 45°
2026-04-16 08:46 54.08555 -4.63283 54 ft 2 kts 45°
2026-04-16 08:47 54.08544 -4.63301 54 ft 2 kts 45°
2026-04-16 08:47 54.08537 -4.63323 54 ft 2 kts 82°
2026-04-16 08:47 54.08537 -4.63350 54 ft 2 kts 112°
2026-04-16 08:47 54.08543 -4.63365 54 ft 0 kts 133°
2026-04-16 08:48 54.08548 -4.63374 54 ft 0 kts 136°
2026-04-16 08:48 54.08548 -4.63373 54 ft 0 kts 136°
2026-04-16 08:49 54.08543 -4.63366 54 ft 2 kts 136°
2026-04-16 08:49 54.08526 -4.63340 54 ft 3 kts 149°
2026-04-16 08:50 54.08497 -4.63343 54 ft 5 kts 204°
2026-04-16 08:50 54.08452 -4.63337 52 ft 9 kts 138°
2026-04-16 08:50 54.08416 -4.63229 51 ft 12 kts 119°
2026-04-16 08:50 54.08374 -4.63090 49 ft 14 kts 116°
2026-04-16 08:51 54.08326 -4.62927 46 ft 16 kts 117°
2026-04-16 08:51 54.08285 -4.62730 44 ft 18 kts 84°
2026-04-16 08:51 54.08314 -4.62493 43 ft 23 kts 79°
2026-04-16 08:51 54.08351 -4.62196 41 ft 26 kts 79°
2026-04-16 08:52 54.08389 -4.61885 40 ft 27 kts 80°
2026-04-16 08:52 54.08436 -4.61559 41 ft 28 kts 77°
2026-04-16 08:52 54.08474 -4.61234 41 ft 27 kts 79°
2026-04-16 08:52 54.08512 -4.60965 40 ft 12 kts 64°
2026-04-16 08:53 54.08524 -4.60880 40 ft 3 kts 147°
2026-04-16 08:53 54.08509 -4.60910 40 ft 5 kts 281°
2026-04-16 08:53 54.08506 -4.60966 40 ft 0 kts 258°
2026-04-16 08:54 54.08464 -4.61315 42 ft 70 kts 259°
2026-04-16 08:54 54.08310 -4.62536 53 ft 136 kts 256°
2026-04-16 08:54 54.08126 -4.64109 724 ft 134 kts 257°
2026-04-16 08:54 54.07803 -4.65472 1479 ft 128 kts 224°
2026-04-16 08:55 54.06864 -4.65994 1657 ft 168 kts 180°
2026-04-16 08:55 54.05674 -4.65064 1724 ft 214 kts 146°
2026-04-16 08:55 54.04410 -4.63394 1638 ft 245 kts 156°
2026-04-16 08:55 54.02714 -4.62670 1836 ft 259 kts 178°
2026-04-16 08:56 54.00961 -4.61994 2642 ft 272 kts 156°
2026-04-16 08:56 53.99622 -4.59780 3816 ft 279 kts 124°
2026-04-16 08:56 53.98690 -4.56960 4977 ft 277 kts 126°
2026-04-16 08:56 53.97608 -4.54265 5947 ft 280 kts 130°
2026-04-16 08:57 53.96476 -4.51600 6915 ft 283 kts 130°
2026-04-16 08:57 53.95341 -4.48904 7836 ft 288 kts 130°
2026-04-16 08:57 53.94186 -4.46119 8739 ft 293 kts 129°
2026-04-16 08:57 53.93022 -4.43283 9597 ft 300 kts 129°
2026-04-16 08:58 53.91841 -4.40377 10423 ft 306 kts 129°
2026-04-16 08:58 53.90634 -4.37400 11248 ft 311 kts 129°
2026-04-16 08:58 53.89409 -4.34368 12046 ft 317 kts 129°
2026-04-16 08:58 53.88158 -4.31271 12840 ft 322 kts 130°
2026-04-16 08:59 53.86890 -4.28133 13595 ft 327 kts 130°
2026-04-16 08:59 53.85601 -4.24949 14317 ft 332 kts 130°
2026-04-16 08:59 53.84287 -4.21714 14797 ft 345 kts 130°
2026-04-16 08:59 53.82885 -4.18277 14982 ft 367 kts 129°
2026-04-16 09:00 53.81412 -4.14661 14978 ft 375 kts 129°
2026-04-16 09:00 53.79932 -4.11010 14982 ft 378 kts 129°
2026-04-16 09:00 53.78442 -4.07341 14993 ft 378 kts 129°
2026-04-16 09:00 53.76974 -4.03728 14991 ft 378 kts 129°
2026-04-16 09:01 53.74008 -3.96463 14977 ft 376 kts 129°
2026-04-16 09:01 53.72500 -3.92841 14985 ft 375 kts 131°
2026-04-16 09:01 53.70959 -3.89346 14978 ft 374 kts 131°
2026-04-16 09:02 53.69376 -3.85817 14975 ft 374 kts 132°
2026-04-16 09:02 53.67832 -3.82377 14853 ft 369 kts 131°
2026-04-16 09:02 53.66292 -3.78937 14364 ft 369 kts 131°
2026-04-16 09:02 53.64759 -3.75513 13892 ft 367 kts 131°
2026-04-16 09:03 53.63242 -3.72119 13452 ft 364 kts 131°
2026-04-16 09:03 53.61723 -3.68723 13002 ft 361 kts 131°
2026-04-16 09:03 53.60218 -3.65358 12661 ft 354 kts 131°
2026-04-16 09:03 53.58761 -3.62098 12319 ft 349 kts 131°
2026-04-16 09:04 53.57292 -3.58830 11741 ft 350 kts 131°
2026-04-16 09:04 53.55832 -3.55585 11270 ft 348 kts 131°
2026-04-16 09:04 53.54378 -3.52352 10826 ft 344 kts 131°
2026-04-16 09:04 53.53003 -3.49300 10381 ft 341 kts 131°
2026-04-16 09:05 53.51565 -3.46112 9936 ft 338 kts 131°
2026-04-16 09:05 53.50158 -3.42996 9464 ft 335 kts 131°
2026-04-16 09:05 53.48775 -3.39939 9010 ft 332 kts 131°
2026-04-16 09:05 53.47384 -3.36867 8581 ft 329 kts 131°
2026-04-16 09:06 53.46007 -3.33827 8090 ft 326 kts 132°
2026-04-16 09:06 53.44657 -3.30853 7642 ft 324 kts 131°
2026-04-16 09:06 53.43679 -3.28478 7302 ft 325 kts 122°
2026-04-16 09:06 53.43033 -3.24882 7050 ft 321 kts 100°
2026-04-16 09:07 53.42842 -3.21244 6871 ft 311 kts 96°
2026-04-16 09:07 53.42732 -3.17707 6739 ft 299 kts 95°
2026-04-16 09:07 53.42637 -3.14218 6614 ft 297 kts 95°
2026-04-16 09:07 53.42543 -3.10791 6487 ft 296 kts 95°
2026-04-16 09:08 53.42447 -3.07307 6358 ft 296 kts 95°
2026-04-16 09:08 53.42356 -3.03912 6235 ft 295 kts 95°
2026-04-16 09:08 53.42266 -3.00475 6038 ft 291 kts 95°
2026-04-16 09:08 53.42175 -2.97091 5646 ft 291 kts 95°
2026-04-16 09:09 53.42080 -2.93698 5278 ft 290 kts 95°
2026-04-16 09:09 53.41983 -2.90354 4977 ft 286 kts 95°
2026-04-16 09:09 53.41885 -2.87077 4803 ft 273 kts 95°
2026-04-16 09:09 53.41793 -2.83919 4529 ft 259 kts 95°
2026-04-16 09:10 53.41712 -2.81002 4278 ft 245 kts 95°
2026-04-16 09:10 53.41637 -2.78209 4012 ft 234 kts 95°
2026-04-16 09:10 53.41568 -2.75523 3623 ft 230 kts 95°
2026-04-16 09:10 53.41501 -2.72828 3184 ft 229 kts 95°
2026-04-16 09:11 53.41437 -2.70196 2753 ft 227 kts 95°
2026-04-16 09:11 53.41346 -2.67593 2468 ft 216 kts 103°
2026-04-16 09:11 53.40713 -2.65531 2247 ft 188 kts 149°
2026-04-16 09:11 53.39632 -2.64888 2229 ft 150 kts 183°
2026-04-16 09:12 53.38657 -2.65100 2133 ft 136 kts 205°
2026-04-16 09:12 53.37851 -2.65831 2030 ft 131 kts 222°
2026-04-16 09:12 53.37182 -2.66892 1935 ft 130 kts 227°
2026-04-16 09:12 53.36535 -2.67967 1831 ft 130 kts 226°
2026-04-16 09:13 53.35880 -2.69023 1751 ft 128 kts 225°
2026-04-16 09:13 53.35286 -2.70125 1578 ft 127 kts 238°
2026-04-16 09:13 53.34955 -2.71324 1404 ft 127 kts 245°
2026-04-16 09:13 53.34591 -2.72683 1275 ft 126 kts 246°
2026-04-16 09:14 53.34256 -2.74063 1141 ft 126 kts 247°
2026-04-16 09:14 53.33960 -2.75458 984 ft 126 kts 252°
2026-04-16 09:14 53.33763 -2.76933 807 ft 126 kts 259°
2026-04-16 09:14 53.33684 -2.78434 647 ft 126 kts 264°
2026-04-16 09:15 53.33608 -2.79938 482 ft 124 kts 262°
2026-04-16 09:15 53.33530 -2.81455 347 ft 125 kts 264°
2026-04-16 09:15 53.33460 -2.82979 193 ft 124 kts 262°
2026-04-16 09:15 53.33390 -2.84467 89 ft 109 kts 262°
2026-04-16 09:16 53.33340 -2.85488 84 ft 57 kts 265°
2026-04-16 09:16 53.33315 -2.86067 79 ft 43 kts 267°
2026-04-16 09:16 53.33330 -2.86394 75 ft 19 kts 321°
2026-04-16 09:16 53.33450 -2.86411 75 ft 13 kts 37°
2026-04-16 09:17 53.33470 -2.86256 78 ft 12 kts 86°
2026-04-16 09:17 53.33477 -2.86097 80 ft 12 kts 85°
2026-04-16 09:17 53.33484 -2.85942 82 ft 12 kts 85°
2026-04-16 09:17 53.33492 -2.85787 83 ft 12 kts 85°
2026-04-16 09:18 53.33498 -2.85631 85 ft 12 kts 86°
2026-04-16 09:18 53.33516 -2.85507 86 ft 8 kts 29°
2026-04-16 09:18 53.33590 -2.85511 86 ft 10 kts 352°
2026-04-16 09:18 53.33651 -2.85521 87 ft 4 kts 355°
2026-04-16 09:19 53.33664 -2.85523 87 ft 1 kts 355°
2026-04-16 09:19 53.33672 -2.85524 87 ft 0 kts 356°